When you browse on this site, cookies collect data to enhance your experience and personalize the content and advertising you see.
Visit our Privacy Policy to learn more. By continuing to use the site, you agree to this use of cookies and data.
  • în România
  • Lista ţărilor
  • Pe 7 zile
  • Temperatura apei
  • Hartă satelitară
  • Meteo pe hartă
  • Widget-uri
  • user-avatar
    Intrare

    Meteo pe oră la Pobegaylovka

    Astăzi, 20 Noiembrie, Marţi

    Timp Temperatura Precipitaţii Vânt Presiune Umiditate
    00:00 +1°C° 0 mm 3 m/s 736 mmHg 78%
    01:00 +2°C° 0 mm 3 m/s 735 mmHg 77%
    02:00 +2°C° 0 mm 3 m/s 735 mmHg 76%
    03:00 +2°C° 0 mm 3 m/s 735 mmHg 76%
    04:00 +2°C° 0 mm 3 m/s 735 mmHg 77%
    05:00 +3°C° 0 mm 2 m/s 735 mmHg 77%
    06:00 +3°C° 0 mm 2 m/s 735 mmHg 78%
    07:00 +3°C° 0.1 mm 2 m/s 734 mmHg 78%
    08:00 +4°C° 0.1 mm 2 m/s 734 mmHg 78%
    09:00 +5°C° 0 mm 1 m/s 734 mmHg 79%
    10:00 +5°C° 0.4 mm 1 m/s 734 mmHg 79%
    11:00 +5°C° 0.4 mm 2 m/s 734 mmHg 79%
    12:00 +5°C° 0.4 mm 2 m/s 734 mmHg 79%
    13:00 +5°C° 0.5 mm 2 m/s 733 mmHg 78%
    14:00 +6°C° 0.5 mm 2 m/s 733 mmHg 77%
    15:00 +6°C° 0.5 mm 2 m/s 733 mmHg 76%
    16:00 +7°C° 0.3 mm 1 m/s 733 mmHg 77%
    17:00 +7°C° 0.3 mm 1 m/s 733 mmHg 78%
    18:00 +7°C° 0.3 mm 1 m/s 733 mmHg 79%
    19:00 +7°C° 0.3 mm 1 m/s 733 mmHg 80%
    20:00 +7°C° 0.3 mm 1 m/s 733 mmHg 81%
    21:00 +8°C° 0.3 mm 1 m/s 733 mmHg 82%
    22:00 +7°C° 0.1 mm 2 m/s 733 mmHg 85%
    23:00 +7°C° 0.1 mm 2 m/s 733 mmHg 88%

    Mâine, 21 Noiembrie, Miercuri

    Timp Temperatura Precipitaţii Vânt Presiune Umiditate
    00:00 +7°C° 0.1 mm 2 m/s 734 mmHg 91%
    01:00 +7°C° 0 mm 2 m/s 734 mmHg 91%
    02:00 +6°C° 0 mm 2 m/s 734 mmHg 92%
    03:00 +5°C° 0 mm 3 m/s 734 mmHg 92%
    04:00 +5°C° 0 mm 3 m/s 734 mmHg 92%
    05:00 +6°C° 0 mm 2 m/s 734 mmHg 92%
    06:00 +6°C° 0 mm 2 m/s 734 mmHg 92%
    07:00 +6°C° 0 mm 2 m/s 734 mmHg 91%
    08:00 +6°C° 0 mm 2 m/s 735 mmHg 90%
    09:00 +6°C° 0 mm 2 m/s 735 mmHg 89%
    10:00 +7°C° 0 mm 2 m/s 735 mmHg 86%
    11:00 +7°C° 0 mm 2 m/s 734 mmHg 83%
    12:00 +7°C° 0 mm 2 m/s 734 mmHg 79%
    13:00 +7°C° 0 mm 2 m/s 734 mmHg 81%
    14:00 +7°C° 0 mm 2 m/s 734 mmHg 82%
    15:00 +6°C° 0 mm 2 m/s 733 mmHg 83%
    16:00 +6°C° 0 mm 2 m/s 734 mmHg 85%
    17:00 +6°C° 0 mm 2 m/s 734 mmHg 87%
    18:00 +5°C° 0 mm 2 m/s 734 mmHg 89%
    19:00 +5°C° 0 mm 2 m/s 734 mmHg 90%
    20:00 +6°C° 0 mm 1 m/s 734 mmHg 90%
    21:00 +6°C° 0 mm 1 m/s 734 mmHg 91%
    22:00 +5°C° 0 mm 1 m/s 734 mmHg 91%
    23:00 +5°C° 0 mm 1 m/s 733 mmHg 91%

    Poimâine, 22 Noiembrie, Joi

    Timp Temperatura Precipitaţii Vânt Presiune Umiditate
    00:00 +5°C° 0 mm 1 m/s 733 mmHg 91%
    01:00 +5°C° 0 mm 1 m/s 733 mmHg 91%
    02:00 +5°C° 0 mm 1 m/s 733 mmHg 91%
    03:00 +5°C° 0 mm 1 m/s 733 mmHg 91%
    04:00 +5°C° 0 mm 1 m/s 733 mmHg 91%
    05:00 +5°C° 0 mm 1 m/s 733 mmHg 91%
    06:00 +4°C° 0 mm 1 m/s 733 mmHg 91%
    07:00 +5°C° 0 mm 1 m/s 733 mmHg 89%
    08:00 +5°C° 0 mm 1 m/s 733 mmHg 87%
    09:00 +5°C° 0 mm 1 m/s 733 mmHg 86%
    10:00 +6°C° 0 mm 1 m/s 733 mmHg 83%
    11:00 +6°C° 0 mm 1 m/s 733 mmHg 80%
    12:00 +7°C° 0 mm 1 m/s 732 mmHg 77%
    13:00 +7°C° 0 mm 1 m/s 732 mmHg 77%
    14:00 +7°C° 0 mm 1 m/s 732 mmHg 77%
    15:00 +7°C° 0 mm 1 m/s 732 mmHg 76%
    16:00 +6°C° 0 mm 1 m/s 732 mmHg 78%
    17:00 +6°C° 0 mm 1 m/s 733 mmHg 80%
    18:00 +5°C° 0 mm 0 m/s 733 mmHg 82%
    19:00 +6°C° 0 mm 1 m/s 733 mmHg 83%
    20:00 +5°C° 0 mm 1 m/s 733 mmHg 83%
    21:00 +5°C° 0 mm 1 m/s 733 mmHg 84%
    22:00 +5°C° 0 mm 1 m/s 733 mmHg 85%
    23:00 +4°C° 0 mm 1 m/s 733 mmHg 86%

    23 Noiembrie, Vineri

    Timp Temperatura Precipitaţii Vânt Presiune Umiditate
    00:00 +4°C° 0 mm 1 m/s 733 mmHg 87%
    01:00 +3°C° 0 mm 1 m/s 733 mmHg 88%
    02:00 +3°C° 0 mm 1 m/s 733 mmHg 89%
    03:00 +2°C° 0 mm 1 m/s 733 mmHg 90%
    04:00 +2°C° 0 mm 1 m/s 733 mmHg 90%
    05:00 +2°C° 0 mm 1 m/s 733 mmHg 90%
    06:00 +1°C° 0 mm 2 m/s 733 mmHg 90%
    07:00 +2°C° 0 mm 2 m/s 733 mmHg 86%
    08:00 +3°C° 0 mm 2 m/s 734 mmHg 82%
    09:00 +3°C° 0 mm 3 m/s 734 mmHg 78%
    10:00 +4°C° 0 mm 3 m/s 734 mmHg 69%
    11:00 +5°C° 0 mm 4 m/s 734 mmHg 61%
    12:00 +6°C° 0 mm 5 m/s 734 mmHg 53%
    13:00 +6°C° 0 mm 5 m/s 735 mmHg 51%
    14:00 +5°C° 0 mm 5 m/s 735 mmHg 49%
    15:00 +5°C° 0 mm 5 m/s 735 mmHg 47%
    16:00 +4°C° 0 mm 4 m/s 737 mmHg 53%
    17:00 +2°C° 0 mm 3 m/s 738 mmHg 59%
    18:00 +1°C° 0 mm 3 m/s 739 mmHg 65%
    19:00 +1°C° 0 mm 2 m/s 739 mmHg 69%
    20:00 -1°C° 0 mm 2 m/s 740 mmHg 72%
    21:00 +1°C° 0 mm 1 m/s 741 mmHg 76%
    22:00 0°C° 0 mm 1 m/s 741 mmHg 78%
    23:00 0°C° 0 mm 1 m/s 741 mmHg 80%

    24 Noiembrie, Sâmbătă

    Timp Temperatura Precipitaţii Vânt Presiune Umiditate
    00:00 0°C° 0 mm 1 m/s 742 mmHg 82%
    01:00 0°C° 0 mm 1 m/s 742 mmHg 82%
    02:00 -3°C° 0 mm 2 m/s 742 mmHg 82%
    03:00 -3°C° 0 mm 2 m/s 742 mmHg 82%
    04:00 -3°C° 0 mm 2 m/s 742 mmHg 82%
    05:00 -3°C° 0 mm 2 m/s 742 mmHg 82%
    06:00 -3°C° 0 mm 2 m/s 742 mmHg 82%
    07:00 -2°C° 0 mm 3 m/s 742 mmHg 79%
    08:00 -2°C° 0 mm 3 m/s 743 mmHg 75%
    09:00 -1°C° 0 mm 3 m/s 743 mmHg 72%
    10:00 0°C° 0 mm 3 m/s 742 mmHg 67%
    11:00 0°C° 0 mm 4 m/s 742 mmHg 62%
    12:00 +1°C° 0 mm 4 m/s 741 mmHg 57%
    13:00 +1°C° 0 mm 4 m/s 741 mmHg 58%
    14:00 +1°C° 0 mm 4 m/s 741 mmHg 59%
    15:00 +3°C° 0 mm 4 m/s 741 mmHg 59%
    16:00 0°C° 0 mm 4 m/s 741 mmHg 64%
    17:00 0°C° 0 mm 3 m/s 741 mmHg 68%
    18:00 -1°C° 0 mm 3 m/s 741 mmHg 72%
    19:00 -1°C° 0 mm 3 m/s 741 mmHg 70%
    20:00 -1°C° 0 mm 3 m/s 741 mmHg 68%
    21:00 -1°C° 0 mm 2 m/s 741 mmHg 66%
    22:00 -1°C° 0 mm 2 m/s 740 mmHg 65%
    23:00 -1°C° 0 mm 2 m/s 740 mmHg 63%

    25 Noiembrie, Duminică

    Timp Temperatura Precipitaţii Vânt Presiune Umiditate
    00:00 -1°C° 0 mm 2 m/s 740 mmHg 62%
    01:00 +1°C° 0 mm 1 m/s 739 mmHg 61%
    02:00 +1°C° 0 mm 1 m/s 739 mmHg 60%
    03:00 +1°C° 0 mm 1 m/s 739 mmHg 59%
    04:00 +1°C° 0 mm 1 m/s 738 mmHg 59%
    05:00 +1°C° 0 mm 1 m/s 738 mmHg 58%
    06:00 +1°C° 0 mm 1 m/s 738 mmHg 57%
    07:00 +2°C° 0 mm 1 m/s 737 mmHg 54%
    08:00 +3°C° 0 mm 1 m/s 737 mmHg 51%
    09:00 +3°C° 0 mm 0 m/s 737 mmHg 48%
    10:00 +5°C° 0 mm 0 m/s 736 mmHg 44%
    11:00 +6°C° 0 mm 0 m/s 736 mmHg 40%
    12:00 +8°C° 0 mm 0 m/s 735 mmHg 36%
    13:00 +7°C° 0 mm 0 m/s 735 mmHg 38%
    14:00 +7°C° 0 mm 0 m/s 735 mmHg 41%
    15:00 +7°C° 0 mm 0 m/s 735 mmHg 43%
    16:00 +6°C° 0 mm 0 m/s 735 mmHg 47%
    17:00 +5°C° 0 mm 0 m/s 735 mmHg 51%
    18:00 +4°C° 0 mm 1 m/s 735 mmHg 55%
    19:00 +4°C° 0 mm 1 m/s 735 mmHg 54%
    20:00 +4°C° 0 mm 1 m/s 734 mmHg 54%
    21:00 +4°C° 0 mm 1 m/s 734 mmHg 54%
    22:00 +4°C° 0 mm 1 m/s 734 mmHg 53%
    23:00 +3°C° 0 mm 0 m/s 734 mmHg 52%
    Arată mai mult